Location: Kumla
(59.1265°N, 15.1401°E)
Time: 02:46:54
(UTC+01:00)

Vanguard 2 Rocket - Pass Details

Date: 03 December 2023
Orbit: 555 x 3309 km, 32.9° (Epoch: 04 March)

Event Time Altitude Azimuth Distance (km) Brightness Sun altitude
Rises 20:50:04 0° 266° (W) 7,242 12.1 -41.4°
Reaches altitude 10° 20:59:34 10° 243° (WSW) 5,878 11.2 -42.4°
Maximum altitude 21:05:23 12° 224° (SW) 5,311 10.8 -43.0°
Drops below altitude 10° 21:10:35 10° 204° (SSW) 5,127 10.6 -43.6°
Enters shadow 21:11:55 - 199° (SSW) 5,141 10.6 -43.7°
Sets 21:17:26 0° 178° (S) 5,484 - -44.3°
